KE4EST Weather Reports


time (UTC)temp
F
wind
direction
speed
knots
gust
knots
rain 1hr
in
rain 24hr
in
rain mn
in
humidity
%
barometer
mb
20260504041556 42 87 0.0 0.0 0.00 0.00 0.00 89 1018.5
20260504041053 43 87 0.0 0.0 0.00 0.00 0.00 89 1018.4
20260504040550 43 89 0.0 0.0 0.00 0.00 0.00 88 1018.5
20260504040047 43 84 0.0 0.0 0.00 0.00 0.00 88 1018.6
20260504035544 43 87 0.0 0.0 0.00 0.00 0.00 88 1018.4
20260504035040 44 86 0.0 0.0 0.00 0.00 0.00 87 1018.5
20260504034538 44 91 0.0 0.0 0.00 0.00 0.00 86 1018.4
20260504034034 44 88 0.0 0.0 0.00 0.00 0.00 85 1018.4
20260504033533 44 86 0.0 0.0 0.00 0.00 0.00 87 1018.4
20260504033030 44 94 0.0 0.0 0.00 0.00 0.00 86 1018.2
20260504032527 44 88 0.0 0.0 0.00 0.00 0.00 87 1018.3
20260504032023 44 87 0.0 0.0 0.00 0.00 0.00 86 1018.3
20260504031520 44 88 0.0 0.0 0.00 0.00 0.00 86 1018.2
20260504031016 44 87 0.0 0.0 0.00 0.00 0.00 87 1018.1
20260504030514 44 89 0.0 0.0 0.00 0.00 0.00 85 1017.8
20260504030010 44 89 0.0 0.0 0.00 0.00 0.00 85 1018.1
20260504025507 44 85 0.0 0.0 0.00 0.00 0.00 84 1018.2
20260504025004 45 88 0.0 0.0 0.00 0.00 0.00 83 1018.1
20260504024500 45 87 0.0 0.0 0.00 0.00 0.00 82 1018.1
20260504023958 45 83 0.0 0.0 0.00 0.00 0.00 82 1018.1
20260504023455 45 81 0.0 0.0 0.00 0.00 0.00 83 1018.3
20260504022950 45 85 0.0 0.0 0.00 0.00 0.00 83 1018.1
20260504022446 46 85 0.0 0.0 0.00 0.00 0.00 82 1018.1
20260504021943 46 89 0.0 0.0 0.00 0.00 0.00 81 1018.2
20260504021440 46 86 0.0 0.0 0.00 0.00 0.00 80 1018.2
20260504020938 47 85 0.0 0.0 0.00 0.00 0.00 79 1018.2
20260504020434 47 82 0.0 0.0 0.00 0.00 0.00 79 1018.2
20260504015931 47 84 0.0 0.0 0.00 0.00 0.00 79 1018.0
20260504015427 47 88 0.0 0.0 0.00 0.00 0.00 76 1018.0
20260504014923 47 85 0.0 0.0 0.00 0.00 0.00 77 1017.7
20260504014419 48 74 0.0 0.0 0.00 0.00 0.00 77 1017.7
20260504013916 48 93 0.0 0.0 0.00 0.00 0.00 77 1017.7
20260504013415 48 85 0.0 0.0 0.00 0.00 0.00 75 1017.6
20260504012910 48 85 0.0 0.0 0.00 0.00 0.00 75 1017.6
20260504012408 49 86 0.0 0.0 0.00 0.00 0.00 74 1017.7
20260504011906 49 88 0.0 0.0 0.00 0.00 0.00 73 1017.6
20260504011403 50 85 0.0 0.0 0.00 0.00 0.00 73 1017.5
20260504010859 50 88 0.0 0.0 0.00 0.00 0.00 72 1017.7
20260504010355 50 86 0.0 0.0 0.00 0.00 0.00 68 1017.6
20260504005851 51 86 0.0 0.0 0.00 0.00 0.00 69 1017.5
20260504005348 51 86 0.0 0.0 0.00 0.00 0.00 67 1017.6
20260504004846 51 89 0.0 0.0 0.00 0.00 0.00 65 1017.5
20260504004343 52 80 0.0 0.0 0.00 0.00 0.00 63 1017.3
20260504003839 53 88 0.0 0.0 0.00 0.00 0.00 63 1017.2
20260504003336 54 88 0.0 0.0 0.00 0.00 0.00 60 1017.2
20260504002832 55 89 0.0 0.0 0.00 0.00 0.00 57 1017.1
20260504002329 56 89 0.0 0.0 0.00 0.00 0.00 56 1017.2
20260504001827 57 89 0.0 0.0 0.00 0.00 0.00 52 1017.1
20260504001324 57 89 0.0 0.0 0.00 0.00 0.00 49 1017.2
20260504000821 58 65 0.0 0.9 0.00 0.00 0.00 47 1017.2
20260504000318 59 98 0.0 0.0 0.00 0.00 0.00 46 1017.2
20260503235816 59 87 0.0 0.0 0.00 0.00 0.00 45 1017.2
20260503235314 59 91 0.0 0.0 0.00 0.00 0.00 44 1017.1
20260503234811 60 91 0.0 0.0 0.00 0.00 0.00 43 1017.2
20260503234308 60 85 0.0 0.0 0.00 0.00 0.00 41 1017.2
20260503233806 60 95 0.0 0.0 0.00 0.00 0.00 43 1017.0
20260503233301 60 78 0.0 0.0 0.00 0.00 0.00 41 1017.2
20260503232758 60 34 0.9 1.7 0.00 0.00 0.00 40 1017.2
20260503232256 60 55 0.9 1.7 0.00 0.00 0.00 40 1017.2
20260503231754 60 82 0.9 0.9 0.00 0.00 0.00 40 1017.2
20260503231251 61 107 0.9 0.9 0.00 0.00 0.00 40 1017.3
20260503230746 61 88 0.0 0.0 0.00 0.00 0.00 39 1017.2
20260503230244 61 80 0.0 0.0 0.00 0.00 0.00 39 1017.5
20260503225742 61 50 1.7 1.7 0.00 0.00 0.00 38 1017.4
20260503225242 62 66 1.7 1.7 0.00 0.00 0.00 38 1017.6
20260503224738 62 128 0.0 0.0 0.00 0.00 0.00 38 1017.5
20260503224236 62 77 0.0 0.9 0.00 0.00 0.00 39 1017.3
20260503223734 62 107 0.9 0.9 0.00 0.00 0.00 36 1017.2
20260503223231 62 115 0.9 1.7 0.00 0.00 0.00 36 1017.3
20260503222727 62 72 0.9 0.9 0.00 0.00 0.00 35 1017.4
20260503222225 63 129 0.9 0.9 0.00 0.00 0.00 35 1017.3
20260503221723 63 22 0.9 1.7 0.00 0.00 0.00 35 1017.2
20260503221220 64 89 0.0 0.0 0.00 0.00 0.00 35 1017.3
20260503220717 64 77 0.9 0.9 0.00 0.00 0.00 39 1017.2
20260503220214 64 50 1.7 1.7 0.00 0.00 0.00 35 1017.2
20260503215705 64 7 0.9 0.9 0.00 0.00 0.00 37 1017.3
20260503215201 64 18 0.9 1.7 0.00 0.00 0.00 35 1017.4
20260503214700 64 59 0.9 1.7 0.00 0.00 0.00 35 1017.5
20260503214156 64 91 0.0 0.0 0.00 0.00 0.00 33 1017.4
20260503213655 64 157 0.9 1.7 0.00 0.00 0.00 34 1017.4
20260503213152 64 76 0.9 0.9 0.00 0.00 0.00 34 1017.4
20260503212649 64 127 0.9 1.7 0.00 0.00 0.00 32 1017.6
20260503212146 64 96 1.7 1.7 0.00 0.00 0.00 31 1017.6
20260503211644 64 87 0.9 0.9 0.00 0.00 0.00 33 1017.7
20260503211139 64 333 1.7 1.7 0.00 0.00 0.00 35 1017.5
20260503210636 65 129 0.9 1.7 0.00 0.00 0.00 36 1017.8
20260503210132 65 0 0.9 1.7 0.00 0.00 0.00 33 1017.8
20260503205622 64 99 0.0 0.0 0.00 0.00 0.00 35 1017.7
20260503205119 65 47 1.7 2.6 0.00 0.00 0.00 33 1018.0
20260503204616 65 339 1.7 2.6 0.00 0.00 0.00 34 1018.1
20260503204114 66 73 0.0 0.0 0.00 0.00 0.00 32 1017.8
20260503203610 65 78 0.9 0.9 0.00 0.00 0.00 34 1017.7
20260503203108 65 309 2.6 3.5 0.00 0.00 0.00 34 1018.1
20260503202605 65 69 0.9 0.9 0.00 0.00 0.00 35 1018.2
20260503202103 67 93 0.0 0.0 0.00 0.00 0.00 34 1018.2
20260503201601 67 88 0.0 0.0 0.00 0.00 0.00 34 1018.3
20260503201058 65 318 0.9 1.7 0.00 0.00 0.00 36 1018.5
20260503200554 66 100 0.9 1.7 0.00 0.00 0.00 33 1018.4
20260503200051 66 27 0.0 1.7 0.00 0.00 0.00 32 1018.4
20260503195548 65 12 1.7 1.7 0.00 0.00 0.00 33 1018.6
20260503195044 65 58 0.9 1.7 0.00 0.00 0.00 33 1018.4
20260503194542 65 17 1.7 1.7 0.00 0.00 0.00 32 1018.6
20260503194041 66 74 2.6 2.6 0.00 0.00 0.00 33 1018.6
20260503193539 66 21 1.7 2.6 0.00 0.00 0.00 31 1018.8
20260503193039 66 37 0.9 1.7 0.00 0.00 0.00 28 1018.8
20260503192535 66 73 0.9 0.9 0.00 0.00 0.00 33 1019.0
20260503192031 66 51 0.9 0.9 0.00 0.00 0.00 35 1019.1
20260503191528 66 339 1.7 1.7 0.00 0.00 0.00 32 1019.0
20260503191025 65 17 2.6 2.6 0.00 0.00 0.00 32 1019.0
20260503190522 65 155 1.7 1.7 0.00 0.00 0.00 31 1019.0
20260503190019 67 47 0.9 1.7 0.00 0.00 0.00 31 1019.1
20260503185515 66 101 0.0 0.9 0.00 0.00 0.00 34 1019.2
20260503185010 66 55 0.9 0.9 0.00 0.00 0.00 35 1019.3
20260503184506 66 20 2.6 2.6 0.00 0.00 0.00 33 1019.4
20260503184003 66 84 0.0 0.9 0.00 0.00 0.00 34 1019.3
20260503183459 65 114 0.9 0.9 0.00 0.00 0.00 32 1019.5
20260503182956 65 6 1.7 2.6 0.00 0.00 0.00 36 1019.2
20260503182450 66 115 0.0 0.9 0.00 0.00 0.00 37 1019.3
20260503181947 66 54 0.9 0.9 0.00 0.00 0.00 35 1019.6
20260503181444 65 95 1.7 1.7 0.00 0.00 0.00 35 1019.4
20260503180940 66 108 0.9 0.9 0.00 0.00 0.00 31 1019.4
20260503180438 66 92 0.0 0.9 0.00 0.00 0.00 34 1019.5
20260503175935 65 98 0.9 0.9 0.00 0.00 0.00 34 1019.5
20260503175433 65 91 0.0 0.0 0.00 0.00 0.00 34 1019.7
20260503174928 65 94 0.0 0.0 0.00 0.00 0.00 35 1019.6
20260503174427 63 127 1.7 1.7 0.00 0.00 0.00 38 1019.8
20260503173927 63 149 0.9 0.9 0.00 0.00 0.00 38 1019.8
20260503173423 63 45 0.9 0.9 0.00 0.00 0.00 38 1020.0
20260503172920 63 114 1.7 2.6 0.00 0.00 0.00 39 1020.0
20260503172417 62 37 2.6 2.6 0.00 0.00 0.00 38 1019.8
20260503171913 62 165 0.9 1.7 0.00 0.00 0.00 42 1019.7
20260503171410 63 73 0.9 0.9 0.00 0.00 0.00 38 1020.1
20260503170908 62 97 0.9 0.9 0.00 0.00 0.00 43 1020.0
20260503170404 62 105 0.9 1.7 0.00 0.00 0.00 42 1020.1
20260503150756 55 147 0.9 0.9 0.00 0.00 0.00 57 1021.0
20260503150252 55 99 0.9 0.9 0.00 0.00 0.00 56 1020.9
20260503140217 51 61 0.9 0.9 0.00 0.00 0.00 72 1020.9
20260503131146 44 92 0.0 0.0 0.00 0.00 0.00 91 1020.8
20260503130643 43 92 0.0 0.0 0.00 0.00 0.00 92 1020.8
20260503130141 42 93 0.0 0.0 0.00 0.00 0.00 94 1021.0
20260503120106 38 82 0.0 0.0 0.00 0.00 0.00 99 1020.8
20260503110534 35 81 0.0 0.0 0.00 0.00 0.00 98 1019.5
20260503090421 38 83 0.0 0.0 0.00 0.00 0.00 97 1018.5
20260503081347 38 84 0.0 0.0 0.00 0.00 0.00 96 1018.2
20260503080844 38 84 0.0 0.0 0.00 0.00 0.00 95 1018.3
20260503080341 38 78 0.0 0.0 0.00 0.00 0.00 95 1018.2
20260503072817 39 84 0.0 0.0 0.00 0.00 0.00 94 1018.0
20260503072314 39 84 0.0 0.0 0.00 0.00 0.00 94 1017.8
20260503071810 40 84 0.0 0.0 0.00 0.00 0.00 93 1018.0
20260503071308 40 84 0.0 0.0 0.00 0.00 0.00 93 1017.8
20260503070803 40 83 0.0 0.0 0.00 0.00 0.00 93 1017.7
20260503070301 40 85 0.0 0.0 0.00 0.00 0.00 93 1018.0
20260503060215 43 85 0.0 0.0 0.00 0.00 0.00 87 1017.6
20260503054702 43 86 0.0 0.0 0.00 0.00 0.00 86 1017.6
20260503054159 43 86 0.0 0.0 0.00 0.00 0.00 85 1017.6
20260503053657 43 86 0.0 0.0 0.00 0.00 0.00 86 1017.7
20260503053156 43 86 0.0 0.0 0.00 0.00 0.00 86 1017.7
20260503052652 43 86 0.0 0.0 0.00 0.00 0.00 85 1017.5
20260503052148 43 86 0.0 0.0 0.00 0.00 0.00 84 1017.5
20260503051643 44 84 0.0 0.0 0.00 0.00 0.00 82 1017.3
20260503051141 44 83 0.0 0.0 0.00 0.00 0.00 83 1017.5
20260503050638 45 83 0.0 0.0 0.00 0.00 0.00 83 1017.3
20260503050134 46 83 0.0 0.0 0.00 0.00 0.00 83 1017.5
20260503045632 46 87 0.0 0.0 0.00 0.00 0.00 78 1017.5
20260503045129 46 87 0.0 0.0 0.00 0.00 0.00 76 1017.3
20260503044626 47 92 0.0 0.0 0.00 0.00 0.00 75 1017.5
20260503044123 47 92 0.0 0.0 0.00 0.00 0.00 74 1017.3
20260503043620 48 92 0.0 0.0 0.00 0.00 0.00 74 1017.2
20260503043117 48 87 0.0 0.0 0.00 0.00 0.00 70 1017.5
20260503042613 49 90 0.9 0.9 0.00 0.00 0.00 69 1017.5
20260503042109 49 99 0.0 0.9 0.00 0.00 0.00 68 1017.7